TimeAST,TemperatureF,Dew PointF,Humidity,Sea Level PressureIn,VisibilityMPH,Wind Direction,Wind SpeedMPH,Gust SpeedMPH,PrecipitationIn,Events,Conditions,WindDirDegrees,DateUTC
12:00 AM,86.0,75.2,70,29.86,5.6,NE,3.5,-,N/A,,Unknown,50,2012-10-08 21:00:00
12:30 AM,86.0,75.2,70,29.86,5.0,Variable,2.3,-,N/A,,Unknown,0,2012-10-08 21:30:00
1:00 AM,86.0,75.2,70,29.83,5.0,NNE,3.5,-,N/A,,Unknown,30,2012-10-08 22:00:00
1:30 AM,86.0,77.0,74,29.83,5.0,NNE,3.5,-,N/A,,Unknown,30,2012-10-08 22:30:00
2:00 AM,86.0,77.0,74,29.83,5.0,NNE,5.8,-,N/A,,Unknown,20,2012-10-08 23:00:00
2:30 AM,86.0,77.0,74,29.83,5.0,NNE,3.5,-,N/A,,Unknown,30,2012-10-08 23:30:00
3:00 AM,85,79,77,29.83,5,NNE,3.5,,,,Haze,20,2012-10-09 00:00:00
3:00 AM,86.0,78.8,79,29.83,5.0,NNE,3.5,-,N/A,,Unknown,20,2012-10-09 00:00:00
3:30 AM,84.2,78.8,84,29.83,5.0,Calm,Calm,-,N/A,,Unknown,0,2012-10-09 00:30:00
4:00 AM,84.2,78.8,84,29.83,5.0,Variable,1.2,-,N/A,,Unknown,0,2012-10-09 01:00:00
4:30 AM,-9999,-9999,N/A,29.83,5.0,Calm,Calm,-,N/A,,Unknown,0,2012-10-09 01:30:00
5:00 AM,82.4,78.8,89,29.83,4.3,Calm,Calm,-,N/A,,Unknown,0,2012-10-09 02:00:00
6:00 AM,82.4,78.8,89,29.86,3.1,Variable,2.3,-,N/A,,Haze,0,2012-10-09 03:00:00
6:30 AM,82.4,75.2,79,29.86,3.1,Variable,2.3,-,N/A,,Haze,0,2012-10-09 03:30:00
7:00 AM,84.2,77.0,79,29.86,3.1,SW,3.5,-,N/A,,Haze,220,2012-10-09 04:00:00
7:30 AM,86.0,77.0,74,29.89,3.7,Variable,2.3,-,N/A,,Unknown,0,2012-10-09 04:30:00
8:00 AM,87.8,78.8,75,29.89,3.7,South,3.5,-,N/A,,Unknown,170,2012-10-09 05:00:00
8:30 AM,89.6,78.8,70,29.89,4.3,South,4.6,-,N/A,,Unknown,180,2012-10-09 05:30:00
9:00 AM,91.4,78.8,66,29.89,5.0,SSE,3.5,-,N/A,,Unknown,160,2012-10-09 06:00:00
9:30 AM,93.2,77.0,59,29.89,5.0,SSE,5.8,-,N/A,,Unknown,150,2012-10-09 06:30:00
10:00 AM,93.2,77.0,59,29.89,5.6,SSE,3.5,-,N/A,,Unknown,150,2012-10-09 07:00:00
10:30 AM,95.0,71.6,47,29.89,5.6,SE,4.6,-,N/A,,Unknown,130,2012-10-09 07:30:00
11:00 AM,95.0,75.2,53,29.86,-9999.0,East,8.1,-,N/A,,Clear,90,2012-10-09 08:00:00
11:30 AM,96.8,73.4,47,29.86,-9999.0,East,9.2,-,N/A,,Clear,100,2012-10-09 08:30:00
12:00 PM,96.8,71.6,44,29.83,-9999.0,East,8.1,-,N/A,,Clear,90,2012-10-09 09:00:00
12:30 PM,98.6,53.6,22,29.83,-9999.0,East,6.9,-,N/A,,Clear,100,2012-10-09 09:30:00
1:00 PM,98.6,60.8,29,29.83,-9999.0,East,5.8,-,N/A,,Clear,100,2012-10-09 10:00:00
1:30 PM,98.6,62.6,30,29.83,6.2,East,8.1,-,N/A,,Partly Cloudy,90,2012-10-09 10:30:00
2:00 PM,98.6,66.2,35,29.80,6.2,ESE,8.1,-,N/A,,Partly Cloudy,110,2012-10-09 11:00:00
2:30 PM,96.8,66.2,37,29.80,6.2,East,6.9,-,N/A,,Partly Cloudy,100,2012-10-09 11:30:00
3:00 PM,98,63,22,29.82,9,East,5.8,,,,Scattered Clouds,100,2012-10-09 12:00:00
3:00 PM,96.8,62.6,32,29.80,6.2,East,5.8,-,N/A,,Partly Cloudy,100,2012-10-09 12:00:00
3:30 PM,96.8,64.4,34,29.80,-9999.0,ESE,6.9,-,N/A,,Clear,110,2012-10-09 12:30:00
4:00 PM,96.8,62.6,32,29.80,-9999.0,ESE,5.8,-,N/A,,Clear,110,2012-10-09 13:00:00
4:30 PM,93.2,75.2,56,29.83,-9999.0,East,6.9,-,N/A,,Clear,100,2012-10-09 13:30:00
5:00 PM,91.4,77.0,63,29.83,5.6,East,5.8,-,N/A,,Unknown,90,2012-10-09 14:00:00
5:30 PM,89.6,77.0,66,29.83,5.0,East,4.6,-,N/A,,Unknown,90,2012-10-09 14:30:00
6:00 PM,89.6,77.0,66,29.83,5.0,East,4.6,-,N/A,,Unknown,90,2012-10-09 15:00:00
6:30 PM,89.6,77.0,66,29.83,5.0,East,4.6,-,N/A,,Unknown,90,2012-10-09 15:30:00
7:00 PM,87.8,77.0,70,29.86,5.0,East,3.5,-,N/A,,Unknown,90,2012-10-09 16:00:00
7:30 PM,87.8,78.8,75,29.86,5.0,East,3.5,-,N/A,,Unknown,80,2012-10-09 16:30:00
8:00 PM,87.8,78.8,75,29.86,5.0,ENE,3.5,-,N/A,,Unknown,70,2012-10-09 17:00:00
8:30 PM,87.8,78.8,75,29.86,-9999.0,Variable,2.3,-,N/A,,Clear,0,2012-10-09 17:30:00
9:00 PM,87,78,67,29.87,6,NE,3.5,,,,,50,2012-10-09 18:00:00
9:00 PM,87.8,77.0,70,29.86,-9999.0,NE,3.5,-,N/A,,Clear,50,2012-10-09 18:00:00
9:30 PM,86.0,77.0,74,29.86,-9999.0,North,3.5,-,N/A,,Clear,360,2012-10-09 18:30:00
10:00 PM,87.8,77.0,70,29.86,-9999.0,NNE,4.6,-,N/A,,Clear,30,2012-10-09 19:00:00
10:30 PM,87.8,78.8,75,29.86,-9999.0,NE,4.6,-,N/A,,Clear,40,2012-10-09 19:30:00
11:00 PM,86.0,78.8,79,29.86,-9999.0,NE,3.5,-,N/A,,Clear,40,2012-10-09 20:00:00
11:30 PM,86.0,77.0,74,29.86,-9999.0,NNE,3.5,-,N/A,,Clear,20,2012-10-09 20:30:00